Flag Weather past 2 weeks in London, Ontario, Canada

Now
39 °F

Overcast.


Feels Like: 39 °F
Forecast: 37 / 46 °F
Wind: 2 mph from Southeast

Location: London Weather Station

Current Time: Oct 31, 2014 at 1:46:03 AM

Latest Report: Oct 31, 2014 at 1:00 AM


Visibility: 15 mi

Pressure: 30.01 "Hg

Humidity: 93%

Dew point: 37 °F

Location of LondonLocation

Historic Weather in London — Graph

°F

London temperature yesterday

Maximum temperature yesterday: 46 °F (at 1:00 PM)
Minimum temperature yesterday: 37 °F (at 8:00 AM)
Average temperature yesterday: 42 °F

Past Weeks' High & Low Weather Summary

 TemperatureHumidityPressure
High66 °F (Oct 28, 2:00 PM)100% (Oct 16, 12:00 AM)30.31 "Hg (Oct 16, 12:00 AM)
Low32 °F (Oct 24, 4:51 AM)45% (Oct 24, 4:00 PM)29.50 "Hg (Oct 17, 3:00 PM)
Average48 °F83%29.91 "Hg
* Reported Midnight between Oct 15 and Oct 16 — Midnight between Oct 30 and Oct 31, London, Weather by CustomWeather, © 2014

Note: Actual official high and low records may vary slightly from our data, if they occured in-between our weather recording intervals... More about our weather records

Advertising

London weather history for previous 24 hours

 ConditionsComfort  
Time TempWeatherWind HumidityBarometerVisibility
12:00 AM
Oct 31
39 °FOvercast.5 mph93%30.02 "Hg15 mi
11:00 PM
Oct 30
39 °FMostly cloudy.3 mph87%30.03 "Hg15 mi
10:00 PM39 °FOvercast.No wind93%30.05 "Hg15 mi
9:00 PM39 °FMostly cloudy.No wind93%30.06 "Hg15 mi
8:00 PM39 °FMostly cloudy.No wind93%30.08 "Hg15 mi
7:00 PM41 °FMostly cloudy.2 mph81%30.08 "Hg15 mi
6:00 PM43 °FCloudy.5 mph71%30.08 "Hg15 mi
5:00 PM46 °FCloudy.9 mph66%30.08 "Hg15 mi
4:00 PM46 °FMostly cloudy.6 mph62%30.07 "Hg15 mi
3:00 PM46 °FMostly cloudy.8 mph66%30.08 "Hg15 mi
2:00 PM46 °FMostly cloudy.9 mph66%30.09 "Hg15 mi
1:00 PM46 °FMostly cloudy.7 mph66%30.11 "Hg15 mi
12:00 PM45 °FPartly sunny.6 mph76%30.12 "Hg15 mi
11:00 AM43 °FPartly sunny.7 mph76%30.12 "Hg15 mi
10:00 AM43 °FPartly sunny.6 mph76%30.11 "Hg15 mi
9:00 AM41 °FPassing clouds.3 mph93%30.11 "Hg15 mi
8:00 AM37 °FPassing clouds.2 mph100%30.10 "Hg15 mi
7:00 AM39 °FPassing clouds.3 mph93%30.09 "Hg15 mi
6:00 AM41 °FLow clouds.6 mph87%30.09 "Hg15 mi
5:00 AM41 °FPassing clouds.6 mph93%30.08 "Hg15 mi
4:00 AM41 °FPassing clouds.6 mph87%30.06 "Hg15 mi
3:00 AM41 °FPassing clouds.6 mph93%30.06 "Hg15 mi
2:00 AM43 °FSprinkles. Mostly cloudy.5 mph93%30.05 "Hg15 mi
1:00 AM43 °FSprinkles. Mostly cloudy.3 mph93%30.05 "Hg15 mi
Weather by CustomWeather, © 2014

See weather overviewHow to use our weather pages